Theta_e
341 344 343 344 340 334 338 339 332 332 336 330 328 335 340 337 324 324 351 358 337 334 345 347 353 356 348 345 343 340 342 342 340 340 340 341 340 341 342 342 341 341 342 339 332 331 334 335 336 338 337 337 338 337 336 335 332 330 329 329 330 331 331 330 328 328 327 326 326 327 327 326 325 325 327 329 330 331 331 330 330 330 330 330 330 329 329
335 339 338 339 335 330 332 336 336 334 334 332 329 338 345 337 329 333 343 345 343 340 340 338 342 344 343 342 344 343 343 343 341 340 341 341 339 341 342 342 340 338 340 337 331 332 334 334 336 338 336 337 337 336 336 334 331 330 329 330 330 329 330 329 327 326 326 326 326 326 326 326 326 326 326 327 329 330 331 331 330 330 330 330 330 329 330
326 336 338 334 333 332 330 332 341 338 331 331 329 333 339 335 334 341 338 336 343 342 338 340 341 342 343 342 341 342 341 341 340 339 340 340 339 340 341 340 338 337 339 335 330 332 334 334 336 336 335 336 336 336 335 333 331 330 330 331 330 329 328 326 326 325 326 327 327 326 326 326 326 327 327 327 328 330 331 330 329 329 329 330 330 329 331
323 331 332 334 337 334 327 330 341 340 333 332 331 333 341 339 336 339 333 331 343 348 346 345 343 342 342 341 340 341 340 340 340 340 340 340 339 340 340 339 338 338 339 336 331 332 333 335 336 335 334 335 335 335 334 332 330 329 329 331 330 329 328 327 326 327 327 327 327 327 326 325 326 327 327 327 328 330 331 329 329 329 328 329 329 330 331
327 335 336 338 334 326 326 335 344 344 339 338 334 334 345 345 335 333 330 333 345 353 348 350 350 344 341 340 340 339 338 339 339 338 339 339 340 341 340 339 338 338 336 333 331 332 334 335 334 333 334 334 334 333 331 330 331 329 329 330 329 330 329 328 328 329 328 329 328 327 325 324 325 327 327 328 329 330 330 329 328 328 328 329 329 329 330
330 341 339 334 326 324 332 347 352 346 338 339 336 333 343 347 340 339 339 338 348 354 351 353 352 346 341 339 335 335 337 337 338 338 338 338 340 341 338 337 338 335 332 331 331 333 334 333 332 333 334 333 333 332 331 330 330 329 329 330 329 330 330 329 330 329 329 330 329 326 324 324 325 326 328 328 329 329 329 328 327 328 328 329 329 330 329
333 335 334 327 327 336 349 353 350 343 335 336 338 339 347 348 343 346 345 339 344 350 346 344 342 338 338 337 335 335 335 335 336 337 337 338 341 340 337 338 337 332 329 330 331 333 333 332 333 333 333 333 333 332 331 332 331 330 331 330 330 330 330 330 330 330 330 330 328 324 323 323 325 326 328 329 329 328 328 327 327 328 328 329 329 330 330
332 330 329 329 334 348 354 346 342 338 333 332 332 334 351 359 351 350 350 347 348 346 341 342 340 336 338 339 336 335 336 336 334 335 337 338 339 339 337 336 334 330 329 331 332 333 332 331 332 333 332 333 332 332 332 332 331 332 332 331 331 331 331 331 331 330 331 329 326 324 325 324 325 326 328 328 328 327 327 326 326 326 326 327 327 329 330
337 337 333 332 333 336 340 339 341 339 336 340 338 331 344 367 361 351 355 359 354 345 342 342 340 338 342 344 338 336 337 337 335 334 336 335 334 335 333 331 332 330 331 333 332 331 331 331 332 332 332 332 333 332 332 332 332 333 332 332 332 332 331 331 330 331 330 328 326 327 326 324 324 326 327 327 326 326 326 326 326 324 324 324 325 326 329
341 341 332 329 327 329 340 350 350 342 337 348 349 332 339 365 362 346 351 360 355 349 344 341 340 343 351 354 348 340 337 338 336 335 333 329 328 330 329 329 330 330 331 333 331 331 331 331 331 331 331 332 333 333 332 332 332 332 333 333 332 332 332 331 331 331 330 328 328 326 325 323 324 325 326 325 324 324 325 326 326 324 323 324 323 324 326
337 331 325 329 328 329 345 356 349 341 336 344 343 329 334 362 363 344 345 354 353 349 344 341 343 346 352 360 355 343 338 338 336 336 335 329 326 328 329 329 330 331 332 332 331 331 332 332 331 331 332 333 333 333 333 333 332 333 333 333 331 331 330 330 330 331 330 329 327 325 324 324 324 324 325 323 323 323 324 327 327 325 324 324 323 322 323
334 329 327 332 330 331 348 357 347 340 336 336 331 324 333 361 363 344 345 352 351 346 341 340 343 347 356 361 353 343 340 338 334 334 335 331 327 326 328 329 331 332 332 332 332 332 333 332 331 331 332 333 334 334 333 332 333 333 332 330 327 327 327 328 329 330 330 328 326 324 324 324 324 324 323 322 322 322 324 326 326 325 325 324 323 323 322
335 331 327 328 330 339 353 354 344 338 332 327 324 325 338 362 362 344 343 348 344 339 340 341 342 345 351 351 346 342 341 338 336 331 327 326 327 328 329 331 330 332 332 332 332 332 332 331 331 332 333 334 333 334 333 333 334 332 328 326 325 325 326 327 328 330 329 327 325 324 324 324 324 323 322 321 321 322 322 323 324 325 324 324 323 323 322
333 335 332 327 332 343 346 340 337 333 325 324 333 337 342 354 360 348 340 341 339 336 337 340 343 345 346 343 345 347 344 343 345 337 327 327 329 328 329 331 331 330 331 331 332 332 332 331 333 333 333 333 333 333 334 333 330 327 325 325 325 325 326 327 328 328 328 326 324 323 323 324 323 321 321 321 322 321 321 322 322 323 323 323 323 322 323
330 332 331 327 333 341 334 329 332 331 326 335 351 349 342 345 353 347 338 339 339 335 336 340 347 352 349 345 345 344 341 343 344 338 331 329 329 327 328 330 331 331 331 330 331 332 332 332 332 333 333 333 333 333 332 329 326 325 326 326 326 326 326 327 328 328 328 326 323 323 323 323 322 321 321 322 322 322 322 321 321 322 322 323 323 323 322
328 328 332 335 341 343 335 332 337 338 340 347 354 351 347 344 342 340 339 338 336 334 336 343 348 349 346 344 342 341 340 341 341 338 333 328 327 328 329 329 331 331 330 330 331 331 331 332 333 334 334 332 330 329 327 326 326 326 327 327 326 326 325 325 326 327 328 325 323 323 324 322 321 321 322 322 322 322 322 322 321 321 321 322 323 323 323
335 338 340 341 342 340 333 335 343 346 343 341 340 343 347 344 338 338 338 338 335 333 337 343 344 344 346 345 343 342 342 341 340 337 333 327 326 327 327 328 330 332 331 330 330 330 331 332 332 333 332 329 328 326 326 326 326 327 327 327 327 326 325 325 325 326 326 324 322 323 323 321 321 322 322 322 322 321 322 322 322 321 321 321 323 323 323
339 336 335 335 338 341 338 336 337 338 338 337 334 335 338 339 339 338 336 338 340 335 337 344 344 343 349 348 344 343 346 345 341 335 330 327 326 326 327 327 329 331 332 330 329 330 330 331 332 332 329 327 326 326 325 326 327 327 327 327 326 325 325 324 324 325 325 323 322 323 322 321 321 322 322 322 322 321 322 322 322 321 321 321 322 322 322
332 334 340 338 336 338 339 336 335 333 336 341 340 337 340 343 343 341 338 339 340 336 339 346 344 343 349 349 346 350 354 355 353 345 332 326 325 325 326 327 329 331 331 329 328 329 330 331 331 330 328 327 326 326 326 326 327 327 327 326 324 323 323 323 323 325 324 322 321 321 321 320 321 322 321 322 322 322 322 322 322 321 320 320 321 321 322
332 337 342 338 335 337 337 336 337 336 337 344 343 339 342 343 340 338 337 336 336 336 339 345 345 347 351 350 347 351 356 359 361 346 328 320 322 324 325 327 330 331 330 329 329 329 330 331 330 328 327 327 326 327 327 327 326 326 326 325 322 322 322 323 324 324 323 322 321 321 321 321 321 321 321 322 322 322 322 322 321 320 320 320 321 321 322
336 338 336 334 336 342 343 339 338 335 335 340 339 333 333 337 337 337 337 336 336 337 341 348 349 346 349 354 354 353 358 363 355 335 322 320 321 322 324 327 330 331 330 329 329 329 329 329 329 327 327 327 327 327 327 327 326 326 325 323 322 322 322 322 323 322 321 320 320 320 320 321 321 321 321 322 323 323 322 321 320 320 320 320 320 320 321
335 340 342 339 334 340 349 345 337 332 331 334 336 333 332 335 337 337 338 338 336 334 335 341 347 347 349 352 356 356 357 352 338 324 320 322 323 323 325 328 329 328 328 327 327 328 328 328 327 328 328 328 328 328 326 326 326 325 325 323 322 322 321 321 322 321 320 320 320 319 320 321 321 321 322 323 323 324 323 321 320 319 319 320 320 320 321
331 332 336 338 333 338 350 345 336 332 329 330 335 336 333 335 335 336 339 338 337 337 333 327 334 352 358 346 344 351 345 331 324 323 323 323 324 324 326 328 328 326 326 326 326 326 327 327 327 328 328 328 327 327 326 326 326 325 324 324 323 322 321 321 321 321 320 321 320 320 320 320 320 322 323 323 324 324 322 321 320 319 319 319 320 320 321
329 325 326 330 329 333 341 339 336 336 332 330 332 332 332 334 334 333 337 339 338 343 343 329 324 336 345 333 330 342 338 323 321 325 325 323 324 324 325 326 327 326 326 326 326 326 326 327 327 327 327 327 326 326 326 326 325 324 323 323 323 322 322 322 322 321 321 321 321 321 321 320 321 323 324 324 324 324 322 320 319 319 319 319 320 321 321
326 323 325 327 327 330 335 336 336 337 335 333 333 333 334 334 332 331 337 341 336 335 344 342 329 325 327 322 321 330 332 324 323 326 325 324 325 324 325 325 326 325 326 326 326 326 326 326 327 327 327 327 327 327 326 324 323 323 321 320 320 320 320 321 321 321 321 320 320 321 322 323 323 324 325 324 323 322 321 320 319 319 319 320 320 321 322
324 326 327 327 326 329 332 332 332 334 335 333 334 337 336 331 330 330 331 332 328 324 330 339 333 324 322 321 320 322 325 325 326 327 326 326 326 325 325 326 325 325 325 325 324 325 325 325 326 326 327 327 327 325 325 323 322 321 319 318 318 317 318 319 321 321 321 321 322 323 324 324 324 324 323 322 321 320 319 319 319 318 319 320 321 321 321
325 328 329 328 327 329 330 330 330 333 333 332 336 340 334 326 326 326 323 322 323 321 322 327 328 325 324 324 324 325 326 326 326 326 325 325 326 325 325 325 324 324 324 324 325 326 326 327 327 327 327 326 325 323 322 321 320 319 318 318 318 317 318 320 321 322 322 322 324 324 323 322 322 322 321 319 318 318 318 317 317 317 316 318 319 319 319
322 325 328 327 328 329 329 329 331 332 332 332 334 334 329 325 325 328 329 329 328 325 323 324 325 325 325 324 325 326 326 325 323 322 323 324 324 324 324 323 323 323 323 323 325 325 325 326 327 326 325 324 323 322 321 320 320 320 320 320 319 320 321 322 322 322 322 322 323 322 321 321 321 320 319 318 317 317 317 316 315 315 314 315 317 318 318
319 321 324 326 327 330 332 331 332 333 332 330 327 326 327 329 330 331 334 334 330 329 329 326 323 323 324 324 325 324 324 323 322 322 322 322 322 322 322 321 321 322 321 322 323 324 324 325 325 325 325 324 323 323 322 322 322 322 322 323 323 323 324 323 322 322 322 323 323 322 320 319 319 318 318 318 317 317 316 315 314 314 312 313 315 315 315
321 322 325 327 327 328 330 332 333 333 331 329 327 327 328 331 333 334 333 332 332 334 330 323 320 322 323 323 324 324 323 323 323 323 322 322 322 321 321 321 321 321 321 323 325 325 325 325 325 324 325 324 324 324 324 324 324 324 324 324 325 324 323 322 321 322 322 321 321 320 318 317 317 317 317 317 317 316 315 314 313 312 310 311 311 311 311
322 324 327 331 331 328 328 331 332 330 329 328 329 330 330 331 334 335 333 332 335 334 327 321 320 322 322 322 323 324 324 324 323 322 322 321 321 321 321 320 321 322 323 324 324 323 323 323 323 323 324 323 324 324 324 324 324 324 324 324 324 323 323 322 322 322 321 320 319 318 317 317 317 317 317 316 316 315 314 313 312 310 309 308 308 307 308
323 325 327 330 330 326 326 328 329 329 329 329 331 333 332 331 333 332 330 330 330 328 326 325 325 323 321 320 322 323 323 323 322 322 322 321 321 322 322 322 322 323 323 321 320 319 319 319 320 320 320 321 322 322 322 323 324 324 323 323 322 322 322 321 320 320 319 318 318 317 316 317 317 316 316 315 314 314 313 311 311 309 308 307 305 305 306
321 324 326 330 329 327 327 327 326 327 328 328 329 330 329 328 329 328 326 325 324 322 322 324 323 320 319 321 322 322 322 322 321 321 321 321 321 322 322 322 321 320 319 318 317 317 317 317 318 319 318 319 320 320 320 322 324 324 323 322 321 321 320 319 318 318 317 316 316 315 315 315 314 314 314 314 313 312 312 311 310 309 307 306 304 304 304
319 320 323 329 331 330 329 328 326 326 327 326 327 328 327 325 325 324 321 321 323 324 322 321 320 321 322 323 322 320 321 323 323 321 319 318 318 319 319 319 318 317 317 317 317 316 316 316 317 318 318 318 319 320 321 322 323 322 321 320 318 318 317 316 315 315 314 314 314 313 313 312 312 312 312 312 311 311 311 310 309 308 306 305 304 303 303
318 319 321 326 328 327 326 327 325 325 326 326 326 326 324 321 320 321 320 320 322 323 321 320 322 323 322 321 321 320 319 321 322 319 317 316 316 316 316 317 316 315 315 316 317 318 318 319 319 318 318 318 319 321 322 322 321 320 319 317 316 315 315 313 312 312 311 311 311 310 310 310 310 310 309 309 309 310 309 309 308 306 305 304 303 302 302
317 319 321 324 325 324 324 324 322 322 324 325 324 324 323 320 319 321 321 319 319 320 321 321 321 321 319 319 319 318 318 319 318 317 316 315 315 315 315 315 314 314 314 314 315 316 317 318 318 317 317 318 320 321 321 320 319 318 317 316 315 314 312 311 310 309 308 308 308 308 308 308 308 307 307 307 307 307 307 307 306 305 304 303 302 301 300
315 318 322 324 323 323 324 322 320 320 321 322 322 322 322 321 320 320 319 318 318 320 320 320 319 319 318 318 318 318 319 319 318 316 315 314 314 315 314 313 313 313 313 313 313 314 314 316 317 317 317 318 318 318 317 317 317 316 315 314 312 310 308 307 307 306 305 305 305 305 305 305 304 304 304 305 305 305 305 304 304 303 302 302 301 300 299
315 317 320 321 321 320 320 319 317 318 321 322 322 321 321 320 320 319 318 318 319 319 318 319 320 319 318 318 319 319 318 317 315 314 314 314 314 314 312 311 312 313 313 313 314 314 315 316 316 316 316 316 315 315 315 315 315 313 312 310 308 306 305 305 304 304 303 302 302 302 302 302 302 302 302 303 303 303 303 303 302 301 300 299 298 297 296
318 318 319 319 319 318 318 318 318 319 321 322 322 320 320 320 318 317 317 317 318 317 318 319 319 318 317 317 318 318 316 314 313 313 313 312 312 312 311 311 312 313 314 314 314 314 315 315 316 315 314 313 313 313 312 312 312 310 308 306 305 304 304 303 303 302 302 301 301 301 301 301 301 301 301 301 302 302 302 301 300 299 299 298 297 296 295
322 321 319 318 319 318 318 318 318 318 319 320 320 319 319 318 317 317 317 318 318 318 319 320 319 317 316 317 316 315 314 313 312 312 311 310 310 311 311 311 313 313 314 314 314 314 314 314 314 313 312 311 311 311 310 309 309 307 306 305 304 303 302 302 302 301 301 301 300 300 300 300 300 300 300 300 300 300 300 299 298 298 298 297 296 295 294
322 321 319 319 319 318 318 318 318 318 319 319 319 319 319 319 317 318 318 318 318 319 319 320 319 317 315 315 315 314 312 312 311 311 311 311 311 311 312 313 313 313 313 313 313 313 313 313 312 312 311 310 309 309 308 307 307 306 304 304 303 302 301 301 301 300 300 299 299 299 299 299 299 299 299 299 299 299 299 299 298 298 297 296 296 295 294
322 320 320 320 320 320 319 319 319 319 319 319 320 320 320 319 318 319 319 319 319 319 319 320 320 318 316 315 314 313 312 311 310 311 311 311 311 311 312 312 312 312 312 312 312 312 311 311 310 309 309 308 308 307 307 306 305 304 303 303 302 302 301 301 300 300 299 298 298 298 298 298 298 298 298 298 299 299 299 299 298 297 297 296 295 294 293
322 321 320 320 320 320 320 320 319 319 320 320 319 319 319 318 318 319 319 318 319 319 320 320 319 318 316 315 313 311 310 310 310 309 309 309 310 310 310 311 311 310 309 310 310 310 309 309 308 308 307 307 306 306 306 305 304 303 302 302 301 301 301 301 300 299 299 299 298 298 297 297 297 297 297 298 298 299 299 298 298 297 296 295 294 293 293
321 320 320 320 320 320 320 320 320 320 320 319 319 318 318 318 319 320 319 319 319 320 319 318 317 315 315 314 312 310 309 309 309 309 308 308 309 310 311 311 310 309 308 308 308 308 307 307 307 306 306 305 305 305 304 304 303 302 301 301 301 301 301 301 300 299 299 299 299 299 298 298 297 297 297 297 297 297 298 298 297 296 295 294 293 293 292
319 319 319 320 320 319 320 320 320 320 319 319 319 318 318 319 319 320 320 320 320 319 318 317 316 315 314 313 312 311 310 309 309 309 309 309 309 310 310 310 308 308 307 306 306 306 306 305 305 304 304 304 303 303 303 303 302 301 301 300 300 300 301 301 300 299 299 299 299 299 299 298 297 296 296 296 296 296 296 296 295 295 294 293 292 292 292
319 319 319 319 319 318 318 319 319 319 319 319 318 318 318 319 320 320 320 320 320 319 319 318 317 316 315 314 312 310 309 309 309 309 310 310 309 308 308 307 306 306 305 304 304 304 304 303 303 302 302 302 301 301 301 301 300 300 300 299 299 299 299 300 300 300 299 298 298 298 298 297 296 296 295 295 294 294 294 294 293 293 293 292 292 292 291
318 318 318 319 319 318 318 318 319 318 318 319 320 319 318 318 319 319 320 320 320 319 319 319 318 317 317 315 314 312 310 309 309 309 309 309 307 306 306 306 306 305 304 303 303 303 302 302 302 301 301 300 300 299 299 299 298 298 297 298 298 298 298 299 299 299 298 297 297 296 296 295 295 294 294 294 293 293 293 292 292 292 291 291 291 291 291
318 317 318 318 318 318 318 318 318 317 316 318 319 318 317 318 319 319 319 319 319 318 318 318 317 316 316 316 316 315 313 312 311 309 308 307 306 306 306 306 306 304 303 303 303 302 302 302 301 300 300 300 299 298 298 298 297 297 296 297 297 297 298 298 298 297 297 296 295 295 294 294 294 293 293 293 292 292 292 292 291 291 291 290 290 290 290
317 317 317 317 318 318 317 317 317 316 316 317 318 318 318 319 318 318 318 318 318 317 317 316 316 315 315 315 315 315 314 313 312 311 309 307 307 307 306 306 305 304 303 303 303 303 302 301 300 300 299 299 298 298 298 298 297 296 296 296 296 296 296 296 296 296 295 295 294 294 294 294 293 293 293 292 292 291 291 291 291 290 290 290 290 290 290
316 317 317 317 317 318 318 317 316 317 318 318 318 318 318 318 317 316 316 317 316 316 316 315 315 314 314 314 314 314 313 312 311 311 309 308 307 307 306 305 305 304 304 303 303 303 302 301 300 299 299 298 298 298 298 298 297 296 296 296 296 295 295 295 295 295 294 294 294 294 293 293 293 292 292 292 291 291 291 291 291 290 290 290 290 290 290
316 316 317 317 318 318 318 318 318 318 319 319 319 318 318 318 317 316 315 315 315 314 313 312 312 312 313 313 312 312 311 310 310 310 310 308 308 306 306 305 305 305 304 303 303 302 301 300 299 299 298 298 298 298 298 297 297 296 296 296 295 295 295 295 295 294 294 294 294 294 293 293 292 292 292 291 291 291 291 291 291 290 290 290 290 290 290
316 316 316 317 317 318 318 318 318 318 319 319 319 318 317 317 316 316 315 315 314 313 312 311 310 311 311 311 311 310 310 310 310 310 309 309 307 306 305 305 305 304 303 302 302 301 301 300 299 299 298 298 298 297 297 297 297 297 296 296 295 295 295 295 295 294 294 294 294 293 293 293 292 292 292 291 291 291 291 291 291 290 290 290 290 290 290
Wind_Speed
1 2 2 1 2 2 3 6 5 4 5 6 6 6 6 7 6 8 7 7 8 9 8 10 11 10 11 12 9 6 5 6 8 9 10 10 10 9 9 8 8 9 8 8 11 16 19 19 19 18 16 13 13 14 15 13 12 11 11 12 12 12 13 13 14 14 14 15 15 16 16 17 17 17 18 19 20 21 21 20 19 18 17 19 20 21 22
3 1 3 2 2 2 2 3 5 5 6 8 8 6 6 8 7 8 4 6 9 9 9 11 9 7 8 6 4 4 6 8 10 11 12 12 11 11 10 9 8 9 9 9 12 16 17 18 18 17 15 14 14 16 16 15 13 12 11 12 12 12 13 13 13 14 15 15 15 16 16 17 17 17 18 19 20 21 21 19 19 18 18 19 19 20 21
2 2 1 2 2 4 4 3 3 3 3 5 5 4 3 4 6 8 3 4 8 9 9 9 6 3 5 5 6 8 8 10 11 12 12 13 12 11 10 9 8 8 8 8 11 14 17 19 19 16 15 15 15 16 17 16 15 13 12 12 12 12 13 12 12 13 14 15 15 16 17 18 18 18 18 19 20 21 20 19 19 19 19 19 18 18 19
4 4 2 1 3 2 1 4 6 5 3 4 4 3 5 5 4 4 2 3 7 7 4 4 4 3 7 8 9 8 7 10 13 14 14 13 12 11 10 9 9 9 8 9 12 16 19 20 18 16 15 16 17 18 18 17 16 14 13 13 13 14 14 13 13 14 15 16 16 16 16 17 18 18 18 18 19 19 19 18 18 18 18 18 17 17 16
4 5 1 2 4 2 3 6 7 7 4 4 2 2 5 6 5 4 4 6 7 5 2 3 4 5 7 9 9 8 9 11 12 13 14 14 13 12 11 10 10 10 11 13 17 20 21 19 17 16 17 18 18 18 17 17 15 15 15 15 15 16 15 15 15 15 16 18 19 17 16 17 18 18 18 18 18 18 17 17 17 18 18 17 17 16 14
4 5 4 4 1 3 6 6 6 7 5 6 5 5 8 7 5 4 5 6 6 5 4 6 7 6 6 6 7 8 9 11 12 12 13 14 13 11 10 10 10 10 13 17 20 23 22 18 16 16 17 19 19 18 16 16 15 15 16 16 17 18 17 17 17 16 17 19 19 17 15 17 18 18 17 17 16 16 15 15 17 18 17 16 16 15 14
2 2 5 2 5 7 6 6 4 3 3 6 7 6 8 8 7 6 7 10 10 7 6 5 5 6 5 4 2 5 7 10 13 13 12 11 11 10 9 8 9 11 15 18 20 21 20 17 17 18 19 20 19 18 17 17 16 17 18 18 19 19 19 19 18 17 18 19 18 16 16 18 19 17 16 16 16 15 15 15 16 16 15 15 15 15 15
2 2 3 4 7 6 6 7 3 2 1 2 3 5 8 7 8 6 7 10 8 5 5 5 4 5 3 3 1 3 4 7 10 12 12 11 10 10 11 12 13 17 21 23 23 22 19 18 19 20 21 21 21 20 19 18 18 18 19 19 20 20 19 19 18 18 18 18 16 16 18 19 18 17 15 15 16 15 14 14 14 14 14 14 16 17 16
3 3 3 3 4 5 6 5 3 4 3 5 5 3 7 7 7 8 6 7 5 3 3 3 3 3 3 4 3 2 4 6 8 9 10 12 12 12 15 18 21 24 28 27 24 21 19 19 21 22 22 22 22 22 20 19 20 20 20 20 21 20 18 17 17 18 17 16 17 18 18 18 17 16 15 15 15 15 14 12 11 12 13 14 15 18 17
3 4 0 3 3 4 6 8 8 4 3 7 7 3 5 7 6 8 7 6 5 4 3 4 4 4 5 2 5 4 4 6 6 5 4 8 12 14 17 19 19 21 25 25 22 20 20 22 23 23 24 24 24 23 22 21 21 21 21 22 22 20 19 17 16 16 15 15 16 17 17 16 15 14 14 14 14 13 13 12 9 10 13 14 15 17 18
2 4 3 3 4 5 7 10 10 5 4 7 7 3 6 7 6 7 7 6 6 6 5 6 5 5 2 4 6 4 6 6 6 5 4 6 11 14 17 19 20 21 23 23 21 21 22 24 25 25 25 25 24 24 23 22 21 21 21 21 21 20 19 17 15 14 14 14 14 14 14 14 13 13 13 12 11 12 13 11 8 8 11 13 14 16 17
3 4 3 3 4 5 7 10 8 3 5 6 4 2 7 7 5 6 8 8 7 7 7 6 6 5 5 6 5 4 6 5 5 7 7 8 11 13 16 20 21 21 22 22 21 22 24 26 26 26 25 24 23 23 22 21 20 20 20 20 19 17 16 14 14 14 13 12 12 12 12 13 13 12 10 9 9 10 11 11 9 9 10 11 13 14 15
4 4 3 3 4 6 7 8 6 4 5 4 3 7 7 6 6 6 8 8 8 8 8 6 5 5 5 4 3 3 6 5 5 6 9 11 14 17 19 21 21 21 23 25 26 26 28 28 27 25 24 22 22 22 20 19 20 19 19 18 16 14 14 13 14 14 12 11 11 11 11 12 11 9 7 8 9 9 10 10 10 10 10 11 12 13 14
3 4 4 3 5 7 7 5 3 3 4 3 7 7 5 5 7 7 6 7 8 8 8 7 5 5 4 2 1 4 7 7 6 6 7 9 12 14 16 18 21 22 23 25 27 28 29 27 24 22 20 19 20 19 18 19 20 19 17 16 14 13 14 15 16 16 13 11 11 12 11 10 9 7 6 7 8 8 9 10 10 10 10 11 12 13 14
2 2 2 1 4 7 4 5 3 2 4 6 6 4 2 3 6 7 6 7 8 8 7 5 4 4 3 1 2 4 5 5 6 6 8 10 11 14 15 17 21 24 23 23 26 27 25 23 20 17 16 17 17 17 17 19 18 16 15 15 14 14 15 16 17 17 15 12 12 13 12 9 8 7 8 7 7 6 8 9 10 10 10 11 11 12 13
3 3 3 4 5 6 4 3 4 5 6 5 5 6 4 3 5 6 6 6 7 9 9 7 4 3 3 2 3 5 4 4 5 5 7 9 12 15 18 20 22 23 22 22 24 24 20 18 16 15 15 15 15 15 17 18 16 14 14 15 15 15 16 17 18 17 16 14 13 14 12 9 8 9 9 8 6 6 7 8 10 11 11 10 10 11 12
3 5 6 6 4 5 5 4 5 6 6 4 4 6 6 4 5 5 6 7 7 7 7 6 4 4 4 3 4 4 3 4 4 4 5 9 12 14 17 18 18 20 22 21 20 19 18 15 14 14 14 14 13 14 16 17 15 14 14 14 15 16 17 18 19 18 16 14 14 14 11 7 7 11 11 9 6 6 7 8 9 11 12 12 11 11 12
4 4 4 3 5 6 6 5 5 5 4 3 2 4 4 4 4 3 4 7 8 7 6 6 4 3 4 3 2 2 1 2 3 3 5 9 12 14 15 15 15 17 18 17 16 17 16 15 15 15 15 14 14 15 16 16 14 14 14 14 15 16 17 18 19 17 15 13 13 12 9 6 8 12 12 10 8 7 7 8 9 10 12 12 13 14 15
3 3 4 4 5 6 6 6 4 3 1 2 1 2 3 4 4 4 4 6 8 6 6 7 6 3 3 4 2 2 2 3 4 4 5 8 11 13 15 15 15 15 15 15 15 16 16 16 16 16 15 15 15 16 16 15 14 14 14 13 14 15 15 17 18 15 14 14 14 12 9 8 10 13 12 10 10 10 8 8 8 9 11 13 14 15 16
1 5 7 7 6 7 6 5 3 2 0 1 2 2 3 5 5 4 4 6 7 6 5 6 7 5 3 4 3 2 3 4 4 3 5 7 8 10 12 12 12 14 15 15 16 16 17 17 17 16 16 16 16 17 15 13 13 13 13 12 12 13 14 16 16 13 12 13 13 11 10 10 12 13 12 10 10 10 8 7 8 8 9 11 13 14 15
3 5 6 6 6 7 6 4 4 5 4 2 5 4 5 7 7 6 5 4 4 6 6 6 8 6 3 4 4 3 4 3 3 3 4 4 5 7 8 8 10 13 14 15 16 16 17 16 15 15 16 15 15 15 13 11 11 12 11 10 11 12 13 13 13 10 9 11 11 10 12 13 13 14 12 9 8 8 7 6 6 6 8 10 11 12 13
4 4 4 3 3 4 6 5 5 6 5 5 7 6 6 8 8 7 7 5 4 5 5 5 7 8 5 4 4 3 2 1 2 4 4 3 5 7 7 8 10 11 11 12 13 14 14 13 13 13 15 15 15 13 11 9 9 9 9 10 12 13 12 12 13 13 13 13 12 11 13 14 13 12 10 7 7 7 5 2 3 5 7 9 10 12 13
6 8 7 4 2 4 7 6 6 6 4 5 8 8 7 7 7 8 9 8 5 4 3 2 6 7 5 4 4 3 2 1 1 2 2 3 5 6 7 8 8 8 8 9 9 11 12 11 11 12 12 12 12 11 8 6 6 6 7 9 11 12 13 14 16 16 16 14 10 9 11 12 12 11 8 6 7 7 4 2 2 4 6 8 9 11 12
6 8 8 4 5 7 8 6 6 5 3 3 6 6 6 6 6 6 8 8 7 5 3 1 4 7 7 6 6 5 4 3 3 3 3 3 4 5 6 7 7 7 7 6 7 8 9 9 10 11 11 11 11 8 5 4 4 4 5 7 9 13 15 16 17 18 17 16 13 12 12 12 11 9 6 6 6 5 4 4 3 6 7 9 10 10 11
5 9 8 4 6 8 7 2 3 3 2 2 3 4 6 6 6 6 7 7 7 8 7 4 4 6 7 7 5 5 4 3 3 4 4 4 4 5 5 6 6 5 4 4 5 6 7 9 10 11 11 9 7 5 4 4 4 6 8 10 13 17 18 17 18 19 20 20 19 17 14 10 7 5 4 6 7 7 7 5 4 7 10 11 11 11 13
5 7 7 5 4 5 3 1 1 4 5 4 4 4 6 7 7 7 7 7 8 9 9 7 5 4 5 6 5 5 4 3 3 4 6 6 6 6 5 5 4 3 2 3 4 6 7 8 9 9 7 4 4 4 4 5 6 10 13 15 16 18 17 16 17 17 19 21 19 14 8 6 6 5 4 6 7 7 8 5 5 7 10 13 14 14 15
5 2 3 5 6 5 5 6 5 6 7 6 5 5 6 8 10 9 8 8 8 8 8 8 8 6 5 5 5 4 3 4 4 5 7 7 7 6 5 5 4 3 2 2 3 5 6 6 5 4 4 5 5 5 5 7 10 14 16 16 15 17 17 16 15 15 16 16 11 5 5 5 5 6 8 8 8 9 10 9 8 9 12 14 16 16 15
9 4 2 4 7 7 6 5 2 4 6 6 6 7 8 9 9 9 8 7 7 7 8 8 9 8 6 5 5 4 4 5 5 6 7 7 6 6 6 6 5 4 3 3 3 4 4 3 1 2 3 4 5 6 8 11 14 16 16 16 16 18 17 15 13 12 9 6 1 3 5 6 7 9 10 10 10 11 12 12 12 11 13 14 14 14 15
10 8 4 7 9 7 3 2 1 4 5 5 6 8 10 9 8 7 7 6 6 5 6 6 8 8 7 6 6 6 5 6 7 7 7 6 6 6 7 6 6 5 4 4 5 5 4 2 0 1 2 4 6 8 11 14 15 16 16 16 17 16 12 10 8 5 4 4 3 4 6 10 14 14 12 10 11 13 14 13 13 13 14 15 16 16 17
8 7 6 6 7 6 5 4 5 6 6 6 6 7 8 10 9 6 6 6 6 5 6 6 7 7 6 6 6 6 6 7 8 8 7 6 6 6 6 6 5 5 4 5 5 4 2 0 0 0 1 3 5 8 10 12 13 14 14 13 12 9 4 3 3 5 9 10 10 10 11 14 16 14 11 10 11 14 14 13 12 13 14 16 17 17 18
8 7 6 7 6 6 7 8 7 6 6 7 8 7 7 8 9 8 7 5 5 5 5 6 6 6 5 4 3 4 6 7 7 6 5 4 4 5 5 5 5 4 2 2 1 1 2 3 3 3 4 5 6 7 9 11 11 11 9 7 3 2 7 10 11 11 14 15 15 15 15 16 14 11 10 11 13 14 13 13 12 12 13 14 15 15 16
9 8 6 5 6 6 6 6 7 8 8 8 9 10 9 9 10 10 8 6 6 7 6 5 5 5 3 1 1 2 3 3 2 2 2 2 2 2 3 3 3 2 3 5 6 5 6 6 6 6 6 7 7 8 10 11 10 7 5 1 3 7 9 12 15 16 17 17 16 15 16 15 12 9 10 12 13 13 12 12 11 11 11 12 13 14 14
10 9 6 4 4 5 6 6 7 9 10 9 9 9 8 7 8 9 8 7 7 6 5 6 6 4 2 2 2 2 4 5 5 5 5 6 6 5 5 7 8 10 10 10 10 8 7 6 6 6 8 8 8 9 10 10 7 3 1 5 9 10 11 14 17 18 18 17 16 14 14 13 10 10 11 12 12 12 12 11 10 10 10 11 12 14 15
11 11 10 8 7 7 9 9 8 7 6 4 3 4 4 6 7 7 8 8 7 6 7 8 7 5 4 3 4 7 8 7 5 5 7 9 11 12 13 14 14 14 14 13 11 8 5 4 4 6 8 8 9 8 7 4 2 3 7 10 12 13 14 15 16 17 17 16 14 12 11 11 10 10 10 10 11 11 10 10 10 9 10 10 11 13 15
11 12 11 10 9 10 11 11 10 9 7 6 5 5 5 5 7 7 8 8 8 9 10 10 8 6 7 7 8 9 8 6 6 7 10 12 13 14 15 15 14 14 14 14 13 12 10 8 7 7 8 8 7 5 3 2 5 8 10 12 13 14 15 14 13 13 14 13 12 11 10 10 10 10 9 9 10 10 9 10 10 9 10 10 10 12 14
10 10 9 8 9 9 8 6 6 7 7 6 5 4 4 6 7 7 7 8 11 12 12 11 8 8 8 8 7 7 7 8 9 11 12 13 14 14 14 14 13 13 13 13 12 10 9 7 6 6 6 4 4 3 2 4 7 8 10 12 14 15 16 15 15 14 12 10 9 9 9 9 9 9 9 9 9 9 10 10 10 10 10 11 10 11 13
11 11 9 8 7 7 5 4 4 5 6 7 7 6 7 8 10 11 10 11 13 14 12 11 10 9 8 7 8 8 9 10 12 14 14 15 15 15 15 14 13 11 10 8 7 6 5 4 3 2 2 4 6 6 5 6 8 10 11 13 16 17 17 18 18 17 16 14 12 12 12 11 10 9 9 9 8 9 9 10 10 11 11 11 11 12 13
12 12 11 8 7 8 9 11 14 14 12 9 8 10 12 14 15 15 14 14 14 12 11 11 13 12 11 10 10 11 12 14 16 17 17 16 15 15 14 12 11 10 8 6 4 4 4 3 4 5 7 8 9 9 8 8 10 12 13 15 16 17 17 18 18 18 18 18 17 17 17 14 12 10 10 10 9 9 9 10 11 11 12 13 15 17 18
6 6 7 9 11 12 12 14 17 18 17 13 10 9 12 14 15 15 14 12 12 12 12 14 15 13 12 12 12 12 13 16 18 18 17 16 17 17 14 11 9 9 7 5 4 4 4 5 6 8 9 10 10 11 11 10 10 11 13 14 15 16 16 16 17 18 18 17 17 18 19 17 14 12 11 11 11 11 11 11 12 12 12 13 15 18 21
4 3 3 4 5 6 7 10 12 15 16 14 10 7 6 9 12 13 12 10 10 11 13 15 14 11 10 12 12 11 13 16 18 19 19 18 18 16 13 10 9 8 7 6 7 8 8 7 8 9 10 10 11 11 11 10 9 10 11 12 13 14 14 14 15 16 16 16 17 18 19 18 16 14 12 11 10 11 11 12 13 13 13 13 14 15 18
4 4 6 8 9 10 9 6 6 10 15 15 12 8 6 7 9 11 10 9 10 10 11 12 12 11 11 13 14 14 15 17 18 19 18 18 16 13 10 8 8 9 8 8 10 11 9 8 9 10 10 10 10 10 10 9 9 9 10 11 12 13 13 14 14 15 15 17 18 19 18 18 17 16 14 13 12 11 11 11 11 12 13 14 14 14 16
5 6 8 7 9 13 15 13 12 14 14 12 11 12 11 10 9 10 12 12 12 11 10 11 13 14 14 15 17 17 17 17 17 16 15 14 14 13 10 8 9 10 9 9 10 10 9 9 9 9 9 10 10 9 8 8 8 8 9 10 10 11 12 13 13 14 15 17 18 18 18 17 16 15 14 14 13 13 12 11 10 10 11 12 12 12 13
5 7 6 5 5 12 16 14 10 7 6 7 10 12 12 11 11 12 13 13 12 12 13 13 14 15 16 18 18 17 16 16 17 16 14 13 13 14 14 13 11 10 9 9 10 10 10 10 10 10 9 9 9 7 6 6 6 7 8 9 10 11 12 12 13 14 15 16 17 17 16 15 15 14 14 13 13 13 12 12 11 11 11 12 12 11 11
6 6 6 4 4 8 13 14 11 7 5 5 6 8 11 12 13 14 14 14 13 14 15 15 14 16 17 19 19 17 16 17 19 19 17 13 12 12 14 15 13 11 11 11 11 10 10 10 10 10 9 8 7 5 4 5 5 6 8 9 10 10 11 12 13 14 14 14 14 14 14 13 13 13 13 13 13 12 12 12 13 13 13 12 11 10 10
6 6 6 5 5 7 9 10 10 8 6 5 4 6 9 11 13 14 15 15 14 14 15 16 16 17 17 17 17 18 18 19 20 19 16 11 8 9 12 13 13 12 11 10 10 10 10 9 9 8 8 7 6 5 4 5 5 5 6 8 8 9 10 12 13 13 13 12 12 12 11 11 11 11 12 12 12 12 12 12 12 12 11 10 9 8 8
6 5 4 4 5 5 6 7 9 10 9 8 6 5 8 12 14 14 14 15 15 15 15 16 17 17 17 18 19 19 18 16 14 13 13 12 12 14 14 13 12 12 11 10 10 10 9 8 8 8 7 6 6 5 5 4 4 3 4 5 6 7 8 10 12 12 12 11 11 10 10 10 11 10 10 10 10 10 10 10 9 9 8 7 6 6 6
6 6 6 6 6 6 7 8 9 10 10 8 6 5 7 11 12 13 13 14 15 14 14 15 16 16 17 18 20 20 18 14 10 9 12 15 16 17 15 13 12 11 10 9 9 10 9 8 7 7 6 5 4 4 3 3 3 3 3 4 5 7 9 11 12 12 12 11 10 10 10 9 9 8 8 7 7 7 6 6 5 5 4 4 4 4 4
5 6 6 7 7 8 10 12 11 8 7 7 7 7 9 10 11 12 12 13 14 14 14 14 14 15 17 17 18 19 19 15 10 9 13 17 17 17 15 14 12 11 10 10 10 10 9 7 7 6 5 4 3 2 2 3 3 4 4 5 6 9 11 11 11 11 10 9 8 8 8 7 6 5 5 4 4 3 3 3 2 2 2 3 3 3 2
6 6 8 9 10 11 11 10 8 6 6 8 9 10 10 11 11 11 12 13 14 14 14 15 14 15 17 17 16 17 18 14 10 11 17 19 17 16 15 14 13 13 12 11 11 11 9 7 7 6 4 3 2 2 3 3 4 5 6 7 8 9 10 9 9 8 7 7 6 6 5 4 4 3 3 2 3 3 3 3 3 2 2 2 2 1 1
9 10 10 10 11 11 10 8 7 7 9 10 11 12 12 12 10 10 11 13 13 13 14 15 15 15 17 16 16 17 17 12 9 13 19 20 17 16 17 17 17 16 14 13 13 13 11 9 7 5 3 3 3 3 4 5 5 5 6 7 8 9 9 8 7 6 5 4 4 4 3 3 4 3 3 3 4 4 4 4 3 2 2 1 1 1 2
9 10 9 8 8 8 8 7 8 10 12 12 12 13 13 11 10 10 12 13 13 13 13 12 12 14 16 17 17 17 16 12 10 14 19 19 18 17 18 18 17 17 16 15 14 14 12 9 7 5 3 3 4 4 5 6 7 6 6 7 7 8 8 7 6 5 4 3 3 3 4 4 5 5 5 5 4 4 4 4 3 3 3 3 3 3 4
9 9 9 8 7 6 5 6 8 10 12 12 12 13 12 11 10 10 11 12 13 15 14 12 10 11 14 16 16 16 13 11 11 15 18 19 18 18 18 17 17 18 17 16 15 13 11 9 7 5 5 5 5 5 6 7 8 7 7 8 8 7 7 6 5 5 5 4 4 5 5 6 6 6 6 6 6 5 5 4 3 3 3 4 4 4 5
Wind_Direction
199 192 313 352 113 134 172 168 167 165 161 163 177 206 198 153 172 249 242 180 205 244 253 248 235 216 219 222 215 210 190 167 160 157 163 174 178 177 176 180 186 188 189 193 200 210 216 216 213 212 214 222 232 241 248 251 250 253 256 255 255 257 261 270 279 284 290 297 305 314 319 322 325 326 326 326 323 320 317 316 315 315 317 315 312 315 322
85 268 289 257 153 126 160 204 195 167 170 189 201 221 204 181 218 256 226 192 232 248 246 250 245 218 215 212 180 166 165 163 164 167 172 178 180 180 182 187 191 190 191 194 201 209 212 210 208 208 215 225 234 243 250 251 248 248 250 253 258 261 263 269 276 282 288 296 305 313 317 320 322 323 325 326 325 322 319 316 316 315 314 313 313 316 320
356 311 210 173 161 170 191 257 261 197 180 196 213 238 201 186 252 272 247 227 260 260 242 253 266 201 174 176 183 187 179 169 170 173 177 180 181 183 187 188 187 191 194 196 202 208 209 208 207 209 219 229 236 245 251 250 247 247 249 254 260 263 265 270 276 282 291 298 306 312 317 319 319 319 321 322 322 322 319 316 317 318 316 312 309 311 316
280 294 147 115 19 89 162 305 278 240 207 193 208 209 182 180 215 246 245 239 257 265 252 261 273 197 180 195 198 188 177 173 173 177 181 182 181 183 187 186 184 190 195 197 204 209 209 207 207 213 223 229 235 243 249 249 247 246 249 255 261 264 266 270 275 283 292 298 303 310 317 320 319 317 316 317 319 319 317 319 321 321 319 315 308 308 315
257 283 24 35 19 34 299 278 234 203 191 201 225 246 220 203 171 175 219 231 241 263 267 243 243 213 206 213 200 183 180 180 180 181 179 178 182 187 189 187 186 190 196 200 204 207 207 206 210 220 226 228 234 242 248 250 248 247 250 256 260 264 268 272 276 285 293 297 302 309 317 320 318 315 314 315 317 318 318 321 323 321 320 318 310 308 315
249 284 17 38 348 235 248 247 191 165 172 190 202 240 239 220 189 198 240 253 259 264 235 222 222 215 227 236 212 194 181 172 176 183 182 180 182 187 189 185 187 193 198 203 207 207 206 208 216 225 228 230 236 243 248 251 250 249 251 255 260 264 269 273 279 287 293 298 303 309 317 321 317 314 315 317 319 322 324 324 324 323 322 322 315 309 312
198 330 53 74 238 230 245 271 245 201 199 182 191 243 256 234 225 243 260 265 266 256 235 239 247 247 275 306 231 200 189 178 176 178 180 181 180 183 186 185 192 198 196 200 206 206 207 212 219 225 228 231 235 241 245 249 250 251 253 256 261 265 270 275 281 287 295 300 303 308 316 320 318 315 315 320 324 327 328 326 326 327 327 325 318 309 306
145 91 111 193 241 257 286 298 269 178 212 186 197 283 281 243 212 207 234 254 261 251 249 268 261 237 262 6 48 182 188 182 175 170 174 181 182 182 186 188 194 197 197 198 201 202 207 214 220 226 229 230 232 237 243 246 249 253 256 258 262 265 270 277 282 287 295 299 299 305 314 317 316 316 317 323 328 331 331 327 326 330 330 325 321 315 308
153 150 192 243 288 305 306 287 218 169 189 187 172 242 275 253 203 181 211 251 244 206 235 253 209 158 82 22 334 245 174 174 182 179 176 179 183 187 191 194 197 197 198 199 198 201 209 216 221 227 230 229 230 235 241 245 249 253 255 258 264 268 271 278 284 288 292 296 300 307 314 316 316 317 318 324 330 331 329 324 323 328 329 326 329 330 321
110 109 225 295 289 271 258 247 247 250 202 167 144 151 272 271 225 191 201 227 204 163 159 193 179 104 69 348 282 246 185 181 189 188 171 177 187 191 190 192 197 200 199 198 199 205 213 219 224 229 230 228 228 232 239 245 250 252 254 259 266 272 274 279 285 287 288 293 302 311 316 317 318 319 320 323 326 327 323 318 314 321 325 330 339 343 336
105 130 189 222 222 237 241 242 254 264 179 145 107 53 289 270 229 194 191 201 191 169 167 173 152 104 100 253 261 228 190 184 181 179 173 178 191 196 192 189 193 199 199 199 203 209 215 222 227 228 229 228 226 229 238 246 250 252 255 262 272 280 282 283 284 282 283 290 301 310 313 316 319 320 320 321 323 326 325 320 315 318 324 330 338 344 344
161 159 200 235 233 243 246 246 251 233 157 136 103 302 273 257 219 185 181 189 187 174 170 165 145 140 177 229 250 208 172 166 175 184 183 179 184 191 195 198 199 199 197 199 205 211 217 224 228 229 228 225 223 229 239 246 249 253 259 270 281 288 287 282 277 274 278 288 295 299 304 311 315 316 319 327 334 335 333 330 328 327 326 328 333 339 344
174 175 214 264 261 246 246 247 237 171 127 128 200 227 237 225 202 189 182 181 178 170 166 165 174 187 201 222 224 150 140 149 177 192 192 189 187 188 193 200 201 199 199 203 209 216 221 225 228 228 225 221 222 231 239 245 250 259 267 276 284 285 279 271 268 269 275 284 288 287 293 304 308 308 320 337 344 345 343 339 332 327 323 321 324 329 334
159 174 207 277 289 254 223 206 205 156 136 192 225 223 218 193 180 182 182 172 169 175 176 174 187 206 227 247 189 144 151 162 171 180 184 186 191 195 197 200 200 200 202 207 213 220 224 225 227 226 221 218 224 231 238 247 257 268 274 277 278 277 272 267 263 264 268 275 280 279 282 293 297 295 309 329 340 348 352 349 340 329 320 312 312 318 325
143 126 172 250 280 262 212 141 133 203 202 211 210 194 204 193 167 164 175 176 173 175 180 193 214 213 215 234 153 150 165 165 159 172 181 182 190 196 197 201 204 203 204 210 216 222 224 224 225 222 216 216 223 231 241 255 268 277 279 277 272 266 265 264 263 261 261 264 271 273 272 273 274 280 294 307 321 337 349 353 348 339 327 315 310 314 323
137 141 200 215 226 249 253 171 181 219 228 212 176 153 163 198 181 167 169 180 183 176 172 180 196 187 182 178 149 154 181 184 167 176 192 195 200 201 201 205 207 205 207 213 218 222 224 223 221 216 212 215 221 232 250 265 276 282 282 281 274 264 260 260 259 257 253 254 263 266 260 254 264 280 290 295 305 326 342 348 346 343 339 329 320 318 323
182 185 217 240 246 255 264 241 222 247 270 256 188 169 165 177 194 186 168 169 175 171 161 152 146 163 181 177 162 165 191 197 183 189 214 217 216 214 214 216 215 211 213 216 219 221 220 217 213 210 210 215 223 239 259 271 279 284 288 288 282 273 265 263 263 259 249 250 263 262 248 246 279 293 293 294 302 317 330 339 342 342 340 335 328 322 320
274 248 236 282 301 285 280 276 250 249 277 292 222 181 159 152 162 166 157 157 160 163 159 145 146 185 182 158 177 218 255 249 227 229 243 238 231 226 226 228 226 220 218 218 219 219 215 209 207 208 210 217 231 249 264 272 281 290 294 293 290 284 274 273 275 266 250 254 270 264 243 243 280 288 288 293 302 307 315 328 338 341 338 335 331 325 320
319 285 275 302 299 281 289 306 291 246 244 321 304 181 164 146 134 129 130 139 145 155 158 146 144 161 145 128 157 255 285 274 253 238 240 241 235 232 234 235 230 219 212 212 213 214 212 206 204 206 211 222 240 255 265 272 281 288 290 291 297 297 289 285 283 270 251 256 265 258 245 252 270 277 281 289 300 304 307 318 332 341 340 338 336 331 326
216 246 267 288 286 273 274 280 274 261 291 39 51 99 130 121 112 111 114 126 137 142 144 138 128 124 141 148 154 216 258 265 259 249 252 255 248 243 241 238 227 215 208 208 209 212 214 209 204 207 217 231 246 258 265 271 276 282 286 290 300 310 308 298 288 271 255 261 266 255 247 254 268 277 279 284 298 306 309 318 332 340 343 343 342 337 334
297 279 289 307 313 308 305 291 260 245 222 129 87 90 112 112 109 104 92 89 122 137 144 141 124 124 170 186 166 187 224 242 261 263 265 262 245 237 235 227 217 212 213 213 213 216 219 213 206 212 225 239 252 260 265 270 274 275 281 291 303 312 314 307 299 285 271 279 287 277 259 254 260 271 276 276 287 295 300 316 337 350 358 360 355 350 350
307 275 258 264 292 294 285 272 246 228 208 145 119 123 129 126 129 126 105 73 59 97 128 141 130 135 173 196 177 187 215 284 307 286 270 227 198 196 201 205 207 211 216 217 217 220 222 218 215 224 237 248 259 264 266 271 272 270 280 298 305 306 310 315 316 310 298 294 294 279 263 259 265 273 274 268 269 272 270 303 2 17 20 17 9 360 359
253 258 254 236 234 265 261 244 219 221 223 161 142 147 149 145 146 139 127 115 94 83 87 131 139 141 157 175 163 143 117 122 191 239 236 200 172 168 174 181 186 196 204 209 216 224 227 228 233 243 254 267 277 280 272 261 263 273 289 301 302 304 313 321 321 316 310 306 301 279 270 275 281 278 264 247 253 253 222 170 54 30 26 21 15 5 357
253 281 276 231 217 255 260 235 206 214 230 182 151 142 139 146 152 145 136 135 137 132 114 107 146 145 152 171 167 141 136 160 160 150 171 180 164 161 169 174 180 191 203 215 231 240 247 256 262 269 282 293 294 286 261 241 261 289 298 300 300 301 303 306 308 308 307 310 317 313 301 292 283 270 246 222 227 222 178 145 72 42 35 26 20 13 4
254 290 293 252 228 251 263 241 193 211 214 186 164 148 145 156 164 155 142 138 143 145 140 145 164 154 151 162 157 129 128 152 159 162 172 173 173 182 190 192 199 207 222 244 266 278 284 287 287 289 292 291 277 256 239 249 283 299 296 292 290 288 287 291 298 300 300 304 312 313 303 285 264 250 234 212 201 180 153 134 90 59 47 38 34 30 25
234 281 307 302 266 260 261 116 179 232 226 200 177 170 167 163 157 148 141 141 147 148 144 147 155 144 137 144 140 128 133 152 173 188 186 183 192 202 204 206 210 217 248 279 302 311 308 304 297 289 277 245 217 228 255 274 293 302 299 293 289 287 287 291 298 303 307 311 311 306 284 249 222 197 178 177 169 144 124 105 67 47 41 42 47 47 41
270 280 328 321 313 289 236 217 211 205 196 185 178 171 156 142 135 126 117 116 122 123 123 127 126 109 101 119 133 144 163 169 180 200 204 204 208 207 199 195 195 201 251 303 321 321 316 311 296 264 208 189 210 239 258 272 289 298 299 298 299 298 298 301 308 314 317 316 308 275 223 212 194 162 141 127 111 96 84 68 48 33 28 36 48 52 50
291 275 199 240 271 270 258 263 254 159 167 181 179 158 136 127 126 122 116 114 110 102 97 108 118 116 112 127 147 160 178 190 200 212 219 223 223 211 200 201 205 218 248 288 317 322 325 325 277 194 184 211 240 254 265 278 290 297 299 299 299 299 303 314 324 327 327 327 309 181 181 170 142 122 108 99 93 87 79 69 57 42 29 30 41 47 49
284 284 252 234 243 247 267 343 89 152 163 171 163 146 136 132 131 131 135 138 131 116 108 112 120 125 134 158 174 177 185 206 220 225 228 233 232 219 212 215 222 238 264 294 314 321 327 337 219 204 236 264 270 273 280 287 294 299 299 296 292 293 305 327 339 2 66 95 123 148 143 124 111 103 95 93 93 89 81 72 62 51 38 31 30 30 30
281 294 293 275 257 227 195 184 185 184 177 164 155 151 145 140 138 142 152 150 141 138 139 135 131 134 149 173 191 202 213 228 238 239 239 244 237 224 223 234 250 270 301 322 327 324 325 30 136 145 313 303 294 291 295 301 303 302 298 292 288 296 332 36 76 102 108 114 122 123 112 100 95 95 96 94 89 85 82 76 67 57 46 38 33 25 18
288 301 304 299 283 240 210 198 188 187 185 168 153 149 149 147 147 153 161 158 149 149 152 149 147 154 167 181 205 233 244 252 258 255 249 244 231 226 240 258 270 288 328 2 19 69 117 109 85 55 24 354 334 323 320 318 313 306 297 285 285 41 87 107 120 122 119 116 112 105 97 91 88 91 93 87 82 80 80 77 70 61 52 44 37 26 18
283 297 310 308 294 272 244 213 186 180 184 177 165 164 167 164 159 159 162 160 153 153 157 158 154 154 163 202 271 269 254 245 236 208 179 161 173 225 254 247 218 158 110 99 93 90 93 89 71 42 16 359 344 333 329 326 320 308 289 256 99 96 104 115 121 123 119 112 103 95 91 90 88 87 85 81 80 81 80 76 72 66 60 52 40 32 31
269 280 283 266 256 258 255 240 213 193 186 182 179 175 169 160 154 154 154 152 149 151 154 153 152 157 189 263 255 178 149 135 129 130 128 122 120 121 128 135 131 118 105 97 91 88 86 79 54 20 0 351 338 326 323 327 327 312 182 118 110 112 115 115 117 117 112 104 97 93 93 93 91 85 82 81 81 81 80 78 76 71 67 60 46 40 46
251 253 243 223 211 213 219 222 220 208 190 171 159 155 148 144 144 143 142 142 143 150 155 154 159 175 194 189 165 154 147 138 130 130 127 122 122 123 124 123 118 108 97 88 83 79 66 41 19 3 1 2 354 340 334 342 27 115 122 120 119 121 118 114 113 112 108 106 104 100 96 93 88 83 82 81 81 79 78 78 79 76 72 64 51 46 53
248 252 246 229 219 218 215 208 202 194 179 163 160 161 148 133 128 129 138 146 150 155 158 159 164 169 160 149 149 154 153 145 137 134 129 124 124 126 125 121 114 103 90 82 79 76 66 53 43 29 18 16 12 2 1 99 119 119 120 120 118 117 114 110 106 105 106 108 106 100 95 91 86 84 83 80 78 78 79 79 78 76 73 67 56 50 53
242 243 246 239 226 222 220 218 213 195 169 147 138 124 104 106 117 128 147 159 155 153 154 155 150 141 135 136 142 146 141 134 130 128 126 124 125 124 118 111 102 92 81 73 68 67 64 55 40 25 18 29 56 77 107 124 122 119 120 119 115 110 106 102 99 98 101 103 100 97 96 94 89 86 84 81 79 78 79 80 79 77 75 71 65 58 54
244 233 235 234 218 199 176 142 130 127 114 109 115 124 130 140 149 157 166 165 155 151 153 150 137 126 122 126 129 126 124 126 127 124 122 124 123 116 106 97 91 83 72 59 46 42 42 34 22 30 73 98 100 98 104 114 117 116 116 115 111 107 103 100 98 97 97 98 98 99 99 96 92 88 84 84 86 83 81 83 84 82 79 78 74 68 62
250 234 221 203 175 155 142 136 138 138 130 126 142 160 167 167 165 164 163 159 153 153 153 143 131 124 121 119 117 115 118 125 126 123 121 122 118 107 95 86 81 72 56 36 22 23 35 56 90 103 103 98 95 96 103 110 111 112 112 111 108 106 105 103 101 99 98 97 97 97 96 94 94 91 88 88 90 90 88 89 91 90 88 86 83 79 76
266 235 199 172 156 147 145 148 152 154 152 152 156 165 171 170 163 156 152 150 151 153 149 137 128 123 119 116 113 114 120 125 125 122 119 116 111 102 91 80 75 69 57 47 55 71 84 100 106 102 99 97 97 100 103 104 104 105 107 106 104 104 105 105 104 103 102 100 99 98 98 96 94 94 93 92 92 94 94 94 95 95 94 90 87 85 82
7 20 81 108 117 124 142 158 160 154 148 143 135 132 153 161 150 137 134 141 151 154 149 139 129 121 120 120 117 117 122 125 125 122 118 113 107 100 90 78 76 81 83 87 97 104 111 116 111 102 100 100 99 100 101 102 102 102 102 100 100 102 104 107 110 110 109 106 104 102 101 99 97 97 97 97 96 98 98 98 98 98 98 96 94 91 88
36 43 69 79 70 53 42 37 56 72 77 82 92 111 150 165 149 134 135 145 153 155 152 144 133 124 123 123 121 121 123 125 124 123 121 115 108 99 86 76 84 98 107 111 113 114 114 112 107 104 103 101 100 102 105 105 102 100 99 98 99 103 107 110 112 113 113 113 111 109 108 108 107 105 105 107 108 107 106 105 105 104 104 103 102 99 95
49 47 54 70 84 78 64 48 41 51 65 89 128 157 174 179 167 154 151 154 153 148 144 140 135 129 124 122 121 120 121 122 122 121 120 120 118 114 109 104 108 113 116 116 115 113 108 104 102 103 103 104 106 106 107 106 103 102 102 103 107 111 114 116 117 119 119 118 117 115 115 114 112 111 112 115 117 119 120 120 119 118 116 116 114 109 104
64 77 68 47 75 98 101 100 99 105 130 164 174 175 179 182 179 167 157 151 146 138 132 130 131 131 129 127 123 120 118 121 120 114 107 108 117 121 122 121 121 121 119 114 109 104 100 100 100 97 96 98 100 99 98 104 109 111 115 119 122 124 124 124 126 129 130 127 124 123 121 118 115 115 117 119 121 126 129 130 130 132 133 131 126 118 111
55 85 96 85 86 105 114 121 128 144 182 209 203 189 185 183 179 169 157 148 142 139 137 136 137 138 137 134 130 129 129 128 123 116 108 104 105 113 121 126 127 124 119 112 107 103 101 101 99 96 92 91 89 87 94 112 125 130 130 133 136 138 140 141 141 139 138 137 134 132 130 126 122 121 122 122 123 125 129 132 136 140 140 136 129 122 116
67 71 79 89 102 112 121 134 151 171 188 192 189 192 187 177 170 166 161 153 148 147 149 149 148 146 143 139 138 139 141 139 133 128 123 118 117 126 134 136 133 127 121 114 109 109 109 106 102 99 96 91 87 87 99 118 132 139 141 141 144 147 152 156 155 150 143 141 140 139 138 136 133 130 127 126 126 125 127 132 137 140 139 135 129 125 118
120 123 129 138 133 126 133 152 166 167 160 149 148 168 174 168 164 165 165 162 157 157 159 159 156 154 150 144 139 138 139 139 138 138 137 137 140 145 147 144 139 134 131 125 120 119 120 117 110 104 99 94 89 89 100 115 126 133 139 144 148 150 154 159 160 154 145 138 136 135 137 140 140 136 132 130 129 129 131 133 136 136 135 132 128 124 120
132 140 152 158 149 135 140 157 164 161 156 155 152 149 153 155 157 159 164 165 163 162 163 162 161 159 157 154 150 147 144 137 131 137 142 141 142 146 149 148 146 145 143 137 133 132 133 130 122 114 107 101 91 86 96 108 103 97 106 128 147 150 148 149 150 148 142 137 135 135 138 140 140 137 135 135 135 135 137 138 137 135 132 128 125 124 119
128 131 139 149 152 147 150 157 160 157 155 152 144 139 143 149 153 157 162 163 161 160 161 161 161 163 165 165 165 164 159 148 139 147 155 153 150 153 156 156 156 157 156 151 149 150 149 144 137 132 125 115 104 103 118 124 113 102 106 122 141 147 145 142 140 140 139 139 141 143 143 143 141 139 140 141 140 144 150 150 140 127 116 109 109 111 102
130 131 135 146 152 153 153 152 150 145 145 144 142 145 150 150 150 153 160 161 158 158 161 164 165 168 170 172 174 174 170 164 161 167 168 165 163 164 166 166 166 168 169 169 168 168 166 161 155 150 145 139 137 145 157 159 147 132 127 130 138 143 143 140 139 139 140 143 149 151 151 153 159 166 168 166 168 170 165 154 139 126 122 114 98 72 29
132 132 136 147 153 154 154 153 153 160 164 162 159 160 161 158 154 155 160 159 155 154 160 165 169 173 176 179 180 180 179 179 179 176 174 174 175 176 175 174 175 177 179 181 179 175 173 171 170 167 164 171 181 185 186 184 176 163 153 149 149 152 152 151 150 150 149 150 158 169 180 188 194 192 185 181 183 182 177 171 167 165 170 189 255 307 328
122 120 128 142 154 163 174 183 186 184 182 178 174 173 172 168 161 159 161 160 155 152 152 158 169 178 182 183 184 187 188 189 183 176 176 180 182 182 182 182 183 184 183 183 182 180 180 181 185 190 203 215 217 214 207 200 195 189 181 173 170 169 168 167 169 172 176 181 194 208 214 213 211 206 199 196 198 199 195 194 202 218 236 257 274 286 298
105 109 118 126 135 153 180 202 206 199 192 187 183 181 179 173 165 162 166 170 169 163 157 155 162 178 188 190 190 193 196 192 182 178 181 184 186 187 187 188 188 188 188 187 187 186 187 191 200 215 229 232 230 226 219 211 208 207 203 199 197 195 195 199 209 216 217 219 228 234 233 231 228 225 219 216 215 213 209 211 230 254 268 280 292 298 301